Simultaneous Nadir Overpasses (SNOs) Predictions

Prediction of SNOs between LANDSAT-8 and METOP-B Satellite Orbit:

Table of predicted SNOs for the next 14.0 days since TLE Epoch: 2/2/2018
Index Date (LANDSAT-8) Time (LANDSAT-8) Lat,Lon (LANDSAT-8) SZA (LANDSAT-8 ) Date (METOP-B) Time (METOP-B) Lat,Lon (METOP-B) SZA (METOP-B ) Distance(km) Time Diff (sec)
1 02/04/2018 19:03:28 -81.14, 114.09 81.16 02/04/2018 19:03:21 -81.14, 114.09 81.17 0.15 7
2 02/04/2018 19:52:53 81.17, -77.80 98.90 02/04/2018 19:53:59 81.17, -77.66 98.94 2.51 66
3 02/07/2018 13:48:16 81.11, 12.41 97.92 02/07/2018 13:47:03 81.12, 12.38 97.89 0.63 73
4 02/07/2018 14:37:41 -81.16,-179.27 82.00 02/07/2018 14:37:41 -81.16,-179.11 81.99 2.85 0
5 02/07/2018 15:27:00 81.32, -8.94 98.37 02/07/2018 15:28:14 81.24, -8.93 98.33 8.75 74
6 02/10/2018 09:22:30 81.12, 78.99 97.04 02/10/2018 09:21:24 81.13, 79.16 97.04 2.99 66
7 02/10/2018 10:11:56 -81.15,-113.03 82.93 02/10/2018 10:12:04 -81.14,-113.08 82.93 0.80 8
8 02/13/2018 04:56:44 81.13, 145.54 96.13 02/13/2018 04:55:46 81.13, 145.56 96.11 0.28 58
9 02/13/2018 05:46:10 -81.15, -46.45 83.84 02/13/2018 05:46:25 -81.16, -46.31 83.82 2.49 15
10 02/16/2018 00:30:57 81.14,-147.93 95.19 02/16/2018 00:30:07 81.13,-148.07 95.15 2.51 50




NCC Satellite Simultaneous Nadir Overpasses (SNOs) Prediction Service
